CYGFM05 (41884 NORAD) Tracking and Keplerian Element Data

This shows tracking and keplerian element data for the satellite.

Feedback or suggestion? Click here.




ElementValue
Catalog41884
NameCYGFM05
Epoch Orbit11089
Epoch Day350.87684909
Epoch Year2018
RAAN226.6357
Inclination34.9556
Eccentricity0.0016277
Argument of Perigee191.2324
Mean Anonmoly168.8026
Mean Motion15.14270448
Decay Rate2.23E-06
L11 41884U 16078A 18350.87684909 .00000223 00000-0 13635-4 0 9994
L22 41884 34.9556 226.6357 0016277 191.2324 168.8026 15.14270448110891

Live tracking and technical data element details for CYGFM05 (NORAD 41884). CYGFM05 can be tracked NOW for your location showing map with azimuth and elevation plus other details from your city location.

Track the satellite on the map from your city or location and see movement details for azimuth, elevation, latitude, longitude, range, height, and movement on the map or in text.







IsCatalogInMostPopularTable: catalog: 41884, numindb: 122
Update: records affected: 1



GetName: 41884 CYGFM05

Hit Count: updated at: Tue, 18 Dec 2018 22:13:52 GMT